Home   Weather   Leerdam   Past weeks

Flag for Netherlands Past Weather in Leerdam, Netherlands — Yesterday and Last 2 Weeks

Now
57 °F

Overcast.


Feels Like: 57 °F
Forecast: 49 / 64 °F
Wind: 3 mph from Southwest

Location: De Bilt

Current Time: Sep 30, 2016 at 10:26:25 AM

Latest Report: Sep 30, 2016 at 9:00 AM


Visibility: 9 mi

Pressure: 29.90 "Hg

Humidity: 91%

Dew Point: 55 °F

Location of LeerdamLocation

Past Weather in Leerdam — Graph

°F

Leerdam Temperature Yesterday

Maximum temperature yesterday: 64 °F (at 12:00 AM)
Minimum temperature yesterday: 59 °F (at 11:00 PM)
Average temperature yesterday: 61 °F

High & Low Weather Summary for the Past Weeks

 TemperatureHumidityPressure
High83 °F (Sep 15, 3:00 PM)100% (Sep 19, 5:00 AM)30.30 "Hg (Sep 19, 5:00 AM)
Low43 °F (Sep 27, 7:00 AM)43% (Sep 15, 4:00 PM)29.79 "Hg (Sep 15, 6:00 PM)
Average60 °F79%30.09 "Hg
* Reported Sep 15 9:00 AM — Sep 30 9:00 AM, Leerdam, Weather by CustomWeather, © 2016

Note: Actual official high and low records may vary slightly from our data, if they occured in-between our weather recording intervals... More about our weather records

Advertising

Leerdam Weather History for the Previous 24 Hours

Scroll right to see more
 ConditionsComfort  
Time TempWeatherWind HumidityBarometerVisibility
9:00 AM
Fri, Sep 30
57 °FOvercast.3 mph91%29.90 "Hg9 mi
8:00 AM57 °FOvercast.3 mph93%29.90 "Hg9 mi
7:00 AM56 °FOvercast.2 mph92%29.88 "Hg10 mi
6:00 AM56 °FOvercast.2 mph95%29.88 "Hg9 mi
5:00 AM57 °FOvercast.2 mph94%29.89 "Hg9 mi
4:00 AM58 °FRain showers. Overcast.3 mph93%29.88 "Hg10 mi
3:00 AM57 °FOvercast.3 mph94%29.90 "Hg10 mi
2:00 AM57 °FOvercast.2 mph96%29.90 "Hg10 mi
1:00 AM58 °FRain showers. Overcast.3 mph95%29.91 "Hg8 mi
12:00 AM58 °FOvercast.5 mph93%29.91 "Hg14 mi
11:00 PM
Thu, Sep 29
59 °FOvercast.5 mph93%29.91 "Hg12 mi
10:00 PM59 °FOvercast.3 mph94%29.91 "Hg19 mi
9:00 PM60 °FOvercast.5 mph94%29.91 "Hg17 mi
8:00 PM60 °FLow clouds.5 mph94%29.91 "Hg22 mi
7:00 PM59 °FLow clouds.3 mph97%29.90 "Hg14 mi
6:00 PM61 °FLow clouds.7 mph94%29.89 "Hg3 mi
5:00 PM63 °FLow clouds.8 mph83%29.89 "Hg14 mi
4:00 PM63 °FOvercast.8 mph83%29.90 "Hg7 mi
3:00 PM63 °FOvercast.9 mph83%29.90 "Hg9 mi
2:00 PM63 °FOvercast.8 mph83%29.93 "Hg11 mi
1:00 PM63 °FLow clouds.7 mph84%29.94 "Hg8 mi
Weather by CustomWeather, © 2016

See weather overviewHow to use our weather pages